This demonstration page uses our WeatherBlox Daily Observations layout. Learn more.

Left ArrowRight Arrow

44.8408, -93.29828

Hourly Observations for May 16, 2022

Temp ( °F °C ) Dew Point ( °F °C ) Humidity (%) Winds ( mph kmh ) Pressure ( in mb ) Visibility ( mi km ) Precip ( " mm )
12:53 am 00:53 Clear 61 16.1 42 5.6 50 50 WNW 7 11 29.88 1012 10 16 0.00 0.00
1:53 am 01:53 Clear 57 13.9 42 5.6 58 58 WNW 6 9 29.88 1012 10 16 0.00 0.00
2:53 am 02:53 Clear 57 13.9 42 5.6 58 58 WNW 7 11 29.88 1012 10 16 0.00 0.00
3:53 am 03:53 Mostly Clear 56 13.3 42 5.6 60 60 WNW 6 9 29.88 1012 10 16 0.00 0.00
4:53 am 04:53 Clear 55 12.8 42 5.6 62 62 WNW 5 7 29.88 1012 10 16 0.00 0.00
5:53 am 05:53 Sunny 55 12.8 43 6.1 64 64 Calm 29.89 1012 10 16 0.00 0.00
6:53 am 06:53 Partly Cloudy 56 13.3 44 6.7 65 65 Calm 29.90 1013 10 16 0.00 0.00
7:53 am 07:53 Partly Cloudy 59 15 46 7.8 62 62 NW 5 7 29.92 1013 10 16 0.00 0.00
8:53 am 08:53 Mostly Sunny 63 17.2 43 6.1 48 48 NW 10 17 29.92 1013 10 16 0.00 0.00
9:53 am 09:53 Sunny 65 18.3 40 4.4 40 40 NW 14 22 29.92 1013 10 16 0.00 0.00
10:53 am 10:53 Mostly Sunny 67 19.4 40 4.4 37 37 NW 17 28 29.93 1014 10 16 0.00 0.00
11:53 am 11:53 Mostly Sunny 68 20 40 4.4 36 36 NW 13 20 29.93 1013 10 16 0.00 0.00
12:53 pm 12:53 Mostly Sunny 68 20 42 5.6 39 39 NNW 18 30 29.92 1013 10 16 0.00 0.00
1:53 pm 13:53 Mostly Sunny 68 20 39 3.9 35 35 NNW 15 24 29.91 1013 10 16 0.00 0.00
2:53 pm 14:53 Partly Cloudy 70 21.1 37 2.8 30 30 NNW 21 33 29.91 1013 10 16 0.00 0.00
3:53 pm 15:53 Partly Cloudy 71 21.7 36 2.2 28 28 NNW 15 24 29.91 1013 10 16 0.00 0.00
4:53 pm 16:53 Partly Cloudy 69 20.6 35 1.7 29 29 WNW 16 26 29.91 1013 10 16 0.00 0.00
5:53 pm 17:53 Mostly Cloudy 68 20 35 1.7 30 30 NNW 16 26 29.91 1013 10 16 0.00 0.00
6:53 pm 18:53 Mostly Cloudy 68 20 35 1.7 30 30 NW 16 26 29.91 1013 10 16 0.00 0.00
7:53 pm 19:53 Mostly Cloudy 66 18.9 35 1.7 32 32 NNW 10 17 29.92 1013 10 16 0.00 0.00
8:53 pm 20:53 Mostly Cloudy 64 17.8 36 2.2 35 35 NW 7 11 29.93 1014 10 16 0.00 0.00
9:53 pm 21:53 Partly Cloudy 62 16.7 37 2.8 40 40 NNW 7 11 29.94 1014 10 16 0.00 0.00
10:53 pm 22:53 Mostly Clear 60 15.6 38 3.3 44 44 NNW 7 11 29.95 1014 10 16 0.00 0.00
11:53 pm 23:53 Mostly Clear 59 15 38 3.3 46 46 NNW 6 9 29.96 1015 10 16 0.00 0.00

Powered by AerisWeather